Year,Month,Day,Hour,Minute,Value (Times are PST for temperature in C)
2021,06,01,00,00,17.30
2021,06,01,00,01,17.30
2021,06,01,00,02,17.30
2021,06,01,00,03,17.30
2021,06,01,00,04,17.30
2021,06,01,00,05,17.30
2021,06,01,00,06,17.30
2021,06,01,00,07,17.30
2021,06,01,00,08,17.30
2021,06,01,00,09,17.30
2021,06,01,00,10,17.30
2021,06,01,00,11,17.30
2021,06,01,00,12,17.30
2021,06,01,00,13,17.30
2021,06,01,00,14,17.30
2021,06,01,00,15,17.30
2021,06,01,00,16,17.30
2021,06,01,00,17,17.30
2021,06,01,00,18,17.30
2021,06,01,00,19,17.30
2021,06,01,00,20,17.30
2021,06,01,00,21,17.30
2021,06,01,00,22,17.30
2021,06,01,00,23,17.30
2021,06,01,00,24,17.40
2021,06,01,00,25,17.40
2021,06,01,00,26,17.40
2021,06,01,00,27,17.40
2021,06,01,00,28,17.40
2021,06,01,00,29,17.40
2021,06,01,00,30,17.40
2021,06,01,00,31,17.40
2021,06,01,00,32,17.40
2021,06,01,00,33,17.30
2021,06,01,00,34,17.30
2021,06,01,00,35,17.30
2021,06,01,00,36,17.30
2021,06,01,00,37,17.30
2021,06,01,00,38,17.30
2021,06,01,00,39,17.30
2021,06,01,00,40,17.30
2021,06,01,00,41,17.30
2021,06,01,00,42,17.30
2021,06,01,00,43,17.30
2021,06,01,00,44,17.20
2021,06,01,00,45,17.20
2021,06,01,00,46,17.20
2021,06,01,00,47,17.30
2021,06,01,00,48,17.30
2021,06,01,00,49,17.30
2021,06,01,00,50,17.40
2021,06,01,00,51,17.40
2021,06,01,00,52,17.40
2021,06,01,00,53,17.40
2021,06,01,00,54,17.40
2021,06,01,00,55,17.30
2021,06,01,00,56,17.30
2021,06,01,00,57,17.30
2021,06,01,00,58,17.30
2021,06,01,00,59,17.20
2021,06,01,01,00,17.20
2021,06,01,01,01,17.20
2021,06,01,01,02,17.20
2021,06,01,01,03,17.20
2021,06,01,01,04,17.10
2021,06,01,01,05,17.10
2021,06,01,01,06,17.10
2021,06,01,01,07,17.10
2021,06,01,01,08,17.10
2021,06,01,01,09,17.10
2021,06,01,01,10,17.00
2021,06,01,01,11,17.00
2021,06,01,01,12,17.00
2021,06,01,01,13,17.00
2021,06,01,01,14,16.90
2021,06,01,01,15,16.90
2021,06,01,01,16,16.90
2021,06,01,01,17,16.80
2021,06,01,01,18,16.80
2021,06,01,01,19,16.80
2021,06,01,01,20,16.80
2021,06,01,01,21,16.80
2021,06,01,01,22,16.80
2021,06,01,01,23,16.80
2021,06,01,01,24,16.80
2021,06,01,01,25,16.80
2021,06,01,01,26,16.80
2021,06,01,01,27,16.80
2021,06,01,01,28,16.80
2021,06,01,01,29,16.80
2021,06,01,01,30,16.80
2021,06,01,01,31,16.80
2021,06,01,01,32,16.80
2021,06,01,01,33,16.80
2021,06,01,01,34,16.80
2021,06,01,01,35,16.80
2021,06,01,01,36,16.80
2021,06,01,01,37,16.80
2021,06,01,01,38,16.80
2021,06,01,01,39,16.80
2021,06,01,01,40,16.90
2021,06,01,01,41,16.90
2021,06,01,01,42,16.90
2021,06,01,01,43,16.90
2021,06,01,01,44,16.90
2021,06,01,01,45,16.90
2021,06,01,01,46,16.90
2021,06,01,01,47,16.90
2021,06,01,01,48,16.90
2021,06,01,01,49,16.90
2021,06,01,01,50,16.90
2021,06,01,01,51,16.90
2021,06,01,01,52,16.80
2021,06,01,01,53,16.80
2021,06,01,01,54,16.80
2021,06,01,01,55,16.80
2021,06,01,01,56,16.80
2021,06,01,01,57,16.80
2021,06,01,01,58,16.80
2021,06,01,01,59,16.80
2021,06,01,02,00,16.70
2021,06,01,02,01,16.70
2021,06,01,02,02,16.70
2021,06,01,02,03,16.70
2021,06,01,02,04,16.70
2021,06,01,02,05,16.70
2021,06,01,02,06,16.70
2021,06,01,02,07,16.70
2021,06,01,02,08,16.80
2021,06,01,02,09,16.80
2021,06,01,02,10,16.80
2021,06,01,02,11,16.80
2021,06,01,02,12,16.80
2021,06,01,02,13,16.80
2021,06,01,02,14,16.80
2021,06,01,02,15,16.90
2021,06,01,02,16,16.90
2021,06,01,02,17,16.90
2021,06,01,02,18,16.90
2021,06,01,02,19,16.90
2021,06,01,02,20,16.90
2021,06,01,02,21,16.90
2021,06,01,02,22,16.90
2021,06,01,02,23,16.90
2021,06,01,02,24,16.90
2021,06,01,02,25,16.90
2021,06,01,02,26,17.00
2021,06,01,02,27,17.00
2021,06,01,02,28,17.00
2021,06,01,02,29,16.90
2021,06,01,02,30,16.90
2021,06,01,02,31,16.90
2021,06,01,02,32,16.90
2021,06,01,02,33,16.90
2021,06,01,02,34,16.90
2021,06,01,02,35,16.90
2021,06,01,02,36,16.90
2021,06,01,02,37,16.80
2021,06,01,02,38,16.80
2021,06,01,02,39,16.80
2021,06,01,02,40,16.80
2021,06,01,02,41,16.80
2021,06,01,02,42,16.70
2021,06,01,02,43,16.70
2021,06,01,02,44,16.70
2021,06,01,02,45,16.60
2021,06,01,02,46,16.60
2021,06,01,02,47,16.60
2021,06,01,02,48,16.60
2021,06,01,02,49,16.60
2021,06,01,02,50,16.60
2021,06,01,02,51,16.60
2021,06,01,02,52,16.60
2021,06,01,02,53,16.60
2021,06,01,02,54,16.70
2021,06,01,02,55,16.70
2021,06,01,02,56,16.70
2021,06,01,02,57,16.70
2021,06,01,02,58,16.70
2021,06,01,02,59,16.70
2021,06,01,03,00,16.70
2021,06,01,03,01,16.70
2021,06,01,03,02,16.70
2021,06,01,03,03,16.70
2021,06,01,03,04,16.70
2021,06,01,03,05,16.60
2021,06,01,03,06,16.60
2021,06,01,03,07,16.60
2021,06,01,03,08,16.60
2021,06,01,03,09,16.70
2021,06,01,03,10,16.70
2021,06,01,03,11,16.80
2021,06,01,03,12,16.80
2021,06,01,03,13,16.80
2021,06,01,03,14,16.80
2021,06,01,03,15,16.80
2021,06,01,03,16,16.80
2021,06,01,03,17,16.80
2021,06,01,03,18,16.80
2021,06,01,03,19,16.80
2021,06,01,03,20,16.80
2021,06,01,03,21,16.80
2021,06,01,03,22,16.80
2021,06,01,03,23,16.80
2021,06,01,03,24,16.80
2021,06,01,03,25,16.80
2021,06,01,03,26,16.80
2021,06,01,03,27,16.80
2021,06,01,03,28,16.80
2021,06,01,03,29,16.80
2021,06,01,03,30,16.80
2021,06,01,03,31,16.80
2021,06,01,03,32,16.70
2021,06,01,03,33,16.70
2021,06,01,03,34,16.70
2021,06,01,03,35,16.70
2021,06,01,03,36,16.70
2021,06,01,03,37,16.60
2021,06,01,03,38,16.60
2021,06,01,03,39,16.60
2021,06,01,03,40,16.60
2021,06,01,03,41,16.60
2021,06,01,03,42,16.60
2021,06,01,03,43,16.60
2021,06,01,03,44,16.60
2021,06,01,03,45,16.60
2021,06,01,03,46,16.60
2021,06,01,03,47,16.50
2021,06,01,03,48,16.50
2021,06,01,03,49,16.50
2021,06,01,03,50,16.50
2021,06,01,03,51,16.40
2021,06,01,03,52,16.40
2021,06,01,03,53,16.40
2021,06,01,03,54,16.30
2021,06,01,03,55,16.30
2021,06,01,03,56,16.30
2021,06,01,03,57,16.30
2021,06,01,03,58,16.20
2021,06,01,03,59,16.20
2021,06,01,04,00,16.20
2021,06,01,04,01,16.20
2021,06,01,04,02,16.20
2021,06,01,04,03,16.20
2021,06,01,04,04,16.30
2021,06,01,04,05,16.30
2021,06,01,04,06,16.20
2021,06,01,04,07,16.20
2021,06,01,04,08,16.20
2021,06,01,04,09,16.20
2021,06,01,04,10,16.20
2021,06,01,04,11,16.30
2021,06,01,04,12,16.30
2021,06,01,04,13,16.30
2021,06,01,04,14,16.30
2021,06,01,04,15,16.40
2021,06,01,04,16,16.40
2021,06,01,04,17,16.40
2021,06,01,04,18,16.30
2021,06,01,04,19,16.30
2021,06,01,04,20,16.30
2021,06,01,04,21,16.30
2021,06,01,04,22,16.30
2021,06,01,04,23,16.20
2021,06,01,04,24,16.20
2021,06,01,04,25,16.20
2021,06,01,04,26,16.20
2021,06,01,04,27,16.20
2021,06,01,04,28,16.20
2021,06,01,04,29,16.20
2021,06,01,04,30,16.10
2021,06,01,04,31,16.10
2021,06,01,04,32,16.10
2021,06,01,04,33,16.10
2021,06,01,04,34,16.10
2021,06,01,04,35,16.10
2021,06,01,04,36,16.00
2021,06,01,04,37,16.00
2021,06,01,04,38,15.90
2021,06,01,04,39,15.90
2021,06,01,04,40,15.90
2021,06,01,04,41,15.90
2021,06,01,04,42,15.90
2021,06,01,04,43,15.90
2021,06,01,04,44,15.90
2021,06,01,04,45,15.90
2021,06,01,04,46,15.90
2021,06,01,04,47,15.80
2021,06,01,04,48,15.80
2021,06,01,04,49,15.80
2021,06,01,04,50,15.80
2021,06,01,04,51,15.80
2021,06,01,04,52,15.80
2021,06,01,04,53,15.80
2021,06,01,04,54,15.80
2021,06,01,04,55,15.80
2021,06,01,04,56,15.80
2021,06,01,04,57,15.80
2021,06,01,04,58,15.80
2021,06,01,04,59,15.80
2021,06,01,05,00,15.80
2021,06,01,05,01,15.70
2021,06,01,05,02,15.70
2021,06,01,05,03,15.70
2021,06,01,05,04,15.70
2021,06,01,05,05,15.60
2021,06,01,05,06,15.60
2021,06,01,05,07,15.60
2021,06,01,05,08,15.60
2021,06,01,05,09,15.70
2021,06,01,05,10,15.70
2021,06,01,05,11,15.70
2021,06,01,05,12,15.80
2021,06,01,05,13,15.80
2021,06,01,05,14,15.80
2021,06,01,05,15,15.80
2021,06,01,05,16,15.80
2021,06,01,05,17,15.80
2021,06,01,05,18,15.80
2021,06,01,05,19,15.90
2021,06,01,05,20,15.90
2021,06,01,05,21,16.00
2021,06,01,05,22,16.10
2021,06,01,05,23,16.10
2021,06,01,05,24,16.20
2021,06,01,05,25,16.20
2021,06,01,05,26,16.20
2021,06,01,05,27,16.30
2021,06,01,05,28,16.30
2021,06,01,05,29,16.30
2021,06,01,05,30,16.30
2021,06,01,05,31,16.30
2021,06,01,05,32,16.30
2021,06,01,05,33,16.30
2021,06,01,05,34,16.30
2021,06,01,05,35,16.30
2021,06,01,05,36,16.20
2021,06,01,05,37,16.20
2021,06,01,05,38,16.20
2021,06,01,05,39,16.20
2021,06,01,05,40,16.20
2021,06,01,05,41,16.20
2021,06,01,05,42,16.10
2021,06,01,05,43,16.10
2021,06,01,05,44,16.10
2021,06,01,05,45,16.10
2021,06,01,05,46,16.10
2021,06,01,05,47,16.00
2021,06,01,05,48,16.00
2021,06,01,05,49,16.00
2021,06,01,05,50,16.00
2021,06,01,05,51,16.00
2021,06,01,05,52,16.00
2021,06,01,05,53,15.90
2021,06,01,05,54,15.90
2021,06,01,05,55,15.90
2021,06,01,05,56,15.90
2021,06,01,05,57,16.00
2021,06,01,05,58,16.10
2021,06,01,05,59,16.10
2021,06,01,06,00,16.20
2021,06,01,06,01,16.20
2021,06,01,06,02,16.20
2021,06,01,06,03,16.30
2021,06,01,06,04,16.30
2021,06,01,06,05,16.30
2021,06,01,06,06,16.30
2021,06,01,06,07,16.30
2021,06,01,06,08,16.30
2021,06,01,06,09,16.30
2021,06,01,06,10,16.30
2021,06,01,06,11,16.30
2021,06,01,06,12,16.30
2021,06,01,06,13,16.30
2021,06,01,06,14,16.30
2021,06,01,06,15,16.30
2021,06,01,06,16,16.30
2021,06,01,06,17,16.30
2021,06,01,06,18,16.20
2021,06,01,06,19,16.20
2021,06,01,06,20,16.20
2021,06,01,06,21,16.10
2021,06,01,06,22,16.10
2021,06,01,06,23,16.10
2021,06,01,06,24,16.00
2021,06,01,06,25,15.90
2021,06,01,06,26,15.90
2021,06,01,06,27,15.90
2021,06,01,06,28,15.90
2021,06,01,06,29,15.90
2021,06,01,06,30,15.80
2021,06,01,06,31,15.80
2021,06,01,06,32,15.80
2021,06,01,06,33,15.80
2021,06,01,06,34,15.80
2021,06,01,06,35,15.80
2021,06,01,06,36,15.70
2021,06,01,06,37,15.70
2021,06,01,06,38,15.70
2021,06,01,06,39,15.70
2021,06,01,06,40,15.70
2021,06,01,06,41,15.70
2021,06,01,06,42,15.70
2021,06,01,06,43,15.70
2021,06,01,06,44,15.70
2021,06,01,06,45,15.70
2021,06,01,06,46,15.70
2021,06,01,06,47,15.80
2021,06,01,06,48,15.80
2021,06,01,06,49,15.80
2021,06,01,06,50,15.80
2021,06,01,06,51,15.80
2021,06,01,06,52,15.80
2021,06,01,06,53,15.80
2021,06,01,06,54,15.80
2021,06,01,06,55,15.90
2021,06,01,06,56,15.90
2021,06,01,06,57,15.90
2021,06,01,06,58,15.90
2021,06,01,06,59,15.90
2021,06,01,07,00,16.00
2021,06,01,07,01,16.00
2021,06,01,07,02,16.00
2021,06,01,07,03,16.10
2021,06,01,07,04,16.10
2021,06,01,07,05,16.10
2021,06,01,07,06,16.20
2021,06,01,07,07,16.20
2021,06,01,07,08,16.20
2021,06,01,07,09,16.30
2021,06,01,07,10,16.30
2021,06,01,07,11,16.30
2021,06,01,07,12,16.30
2021,06,01,07,13,16.40
2021,06,01,07,14,16.40
2021,06,01,07,15,16.40
2021,06,01,07,16,16.40
2021,06,01,07,17,16.50
2021,06,01,07,18,16.50
2021,06,01,07,19,16.60
2021,06,01,07,20,16.60
2021,06,01,07,21,16.70
2021,06,01,07,22,16.70
2021,06,01,07,23,16.70
2021,06,01,07,24,16.70
2021,06,01,07,25,16.70
2021,06,01,07,26,16.70
2021,06,01,07,27,16.70
2021,06,01,07,28,16.80
2021,06,01,07,29,16.80
2021,06,01,07,30,16.80
2021,06,01,07,31,16.80
2021,06,01,07,32,16.80
2021,06,01,07,33,16.90
2021,06,01,07,34,16.90
2021,06,01,07,35,16.90
2021,06,01,07,36,16.90
2021,06,01,07,37,17.00
2021,06,01,07,38,17.00
2021,06,01,07,39,17.10
2021,06,01,07,40,17.10
2021,06,01,07,41,17.10
2021,06,01,07,42,17.10
2021,06,01,07,43,17.10
2021,06,01,07,44,17.20
2021,06,01,07,45,17.20
2021,06,01,07,46,17.20
2021,06,01,07,47,17.20
2021,06,01,07,48,17.30
2021,06,01,07,49,17.30
2021,06,01,07,50,17.30
2021,06,01,07,51,17.30
2021,06,01,07,52,17.40
2021,06,01,07,53,17.40
2021,06,01,07,54,17.40
2021,06,01,07,55,17.40
2021,06,01,07,56,17.40
2021,06,01,07,57,17.50
2021,06,01,07,58,17.50
2021,06,01,07,59,17.60
2021,06,01,08,00,17.60
2021,06,01,08,01,17.70
2021,06,01,08,02,17.70
2021,06,01,08,03,17.70
2021,06,01,08,04,17.70
2021,06,01,08,05,17.80
2021,06,01,08,06,17.80
2021,06,01,08,07,17.90
2021,06,01,08,08,17.90
2021,06,01,08,09,18.00
2021,06,01,08,10,18.10
2021,06,01,08,11,18.10
2021,06,01,08,12,18.10
2021,06,01,08,13,18.10
2021,06,01,08,14,18.10
2021,06,01,08,15,18.10
2021,06,01,08,16,18.10
2021,06,01,08,17,18.10
2021,06,01,08,18,18.20
2021,06,01,08,19,18.20
2021,06,01,08,20,18.20
2021,06,01,08,21,18.30
2021,06,01,08,22,18.30
2021,06,01,08,23,18.30
2021,06,01,08,24,18.30
2021,06,01,08,25,18.40
2021,06,01,08,26,18.40
2021,06,01,08,27,18.50
2021,06,01,08,28,18.50
2021,06,01,08,29,18.50
2021,06,01,08,30,18.60
2021,06,01,08,31,18.60
2021,06,01,08,32,18.70
2021,06,01,08,33,18.70
2021,06,01,08,34,18.70
2021,06,01,08,35,18.80
2021,06,01,08,36,18.80
2021,06,01,08,37,18.90
2021,06,01,08,38,18.90
2021,06,01,08,39,18.90
2021,06,01,08,40,19.00
2021,06,01,08,41,19.10
2021,06,01,08,42,19.20
2021,06,01,08,43,19.20
2021,06,01,08,44,19.30
2021,06,01,08,45,19.40
2021,06,01,08,46,19.50
2021,06,01,08,47,19.50
2021,06,01,08,48,19.60
2021,06,01,08,49,19.70
2021,06,01,08,50,19.80
2021,06,01,08,51,19.80
2021,06,01,08,52,19.90
2021,06,01,08,53,19.90
2021,06,01,08,54,19.90
2021,06,01,08,55,19.90
2021,06,01,08,56,19.80
2021,06,01,08,57,19.80
2021,06,01,08,58,19.80
2021,06,01,08,59,19.80
2021,06,01,09,00,19.80
2021,06,01,09,01,19.80
2021,06,01,09,02,19.80
2021,06,01,09,03,19.80
2021,06,01,09,04,19.80
2021,06,01,09,05,19.80
2021,06,01,09,06,19.80
2021,06,01,09,07,19.90
2021,06,01,09,08,19.90
2021,06,01,09,09,20.00
2021,06,01,09,10,20.10
2021,06,01,09,11,20.10
2021,06,01,09,12,20.10
2021,06,01,09,13,20.10
2021,06,01,09,14,20.10
2021,06,01,09,15,20.10
2021,06,01,09,16,20.10
2021,06,01,09,17,20.10
2021,06,01,09,18,20.10
2021,06,01,09,19,20.10
2021,06,01,09,20,20.10
2021,06,01,09,21,20.10
2021,06,01,09,22,20.10
2021,06,01,09,23,20.10
2021,06,01,09,24,20.20
2021,06,01,09,25,20.20
2021,06,01,09,26,20.30
2021,06,01,09,27,20.30
2021,06,01,09,28,20.40
2021,06,01,09,29,20.40
2021,06,01,09,30,20.50
2021,06,01,09,31,20.60
2021,06,01,09,32,20.70
2021,06,01,09,33,20.80
2021,06,01,09,34,20.80
2021,06,01,09,35,20.90
2021,06,01,09,36,20.90
2021,06,01,09,37,20.90
2021,06,01,09,38,21.00
2021,06,01,09,39,21.00
2021,06,01,09,40,21.00
2021,06,01,09,41,21.00
2021,06,01,09,42,21.00
2021,06,01,09,43,21.00
2021,06,01,09,44,21.00
2021,06,01,09,45,21.00
2021,06,01,09,46,21.00
2021,06,01,09,47,21.00
2021,06,01,09,48,21.00
2021,06,01,09,49,21.10
2021,06,01,09,50,21.10
2021,06,01,09,51,21.10
2021,06,01,09,52,21.10
2021,06,01,09,53,21.00
2021,06,01,09,54,21.00
2021,06,01,09,55,21.00
2021,06,01,09,56,21.00
2021,06,01,09,57,21.10
2021,06,01,09,58,21.20
2021,06,01,09,59,21.20
2021,06,01,10,00,21.30
2021,06,01,10,01,21.30
2021,06,01,10,02,21.40
2021,06,01,10,03,21.40
2021,06,01,10,04,21.40
2021,06,01,10,05,21.40
2021,06,01,10,06,21.50
2021,06,01,10,07,21.60
2021,06,01,10,08,21.70
2021,06,01,10,09,21.80
2021,06,01,10,10,21.90
2021,06,01,10,11,22.00
2021,06,01,10,12,22.10
2021,06,01,10,13,22.20
2021,06,01,10,14,22.20
2021,06,01,10,15,22.20
2021,06,01,10,16,22.30
2021,06,01,10,17,22.40
2021,06,01,10,18,22.50
2021,06,01,10,19,22.50
2021,06,01,10,20,22.50
2021,06,01,10,21,22.50
2021,06,01,10,22,22.50
2021,06,01,10,23,22.50
2021,06,01,10,24,22.50
2021,06,01,10,25,22.50
2021,06,01,10,26,22.50
2021,06,01,10,27,22.60
2021,06,01,10,28,22.70
2021,06,01,10,29,22.70
2021,06,01,10,30,22.70
2021,06,01,10,31,22.80
2021,06,01,10,32,22.70
2021,06,01,10,33,22.80
2021,06,01,10,34,22.80
2021,06,01,10,35,22.80
2021,06,01,10,36,22.90
2021,06,01,10,37,22.90
2021,06,01,10,38,22.90
2021,06,01,10,39,22.90
2021,06,01,10,40,23.00
2021,06,01,10,41,23.10
2021,06,01,10,42,23.10
2021,06,01,10,43,23.20
2021,06,01,10,44,23.20
2021,06,01,10,45,23.30
2021,06,01,10,46,23.30
2021,06,01,10,47,23.30
2021,06,01,10,48,23.40
2021,06,01,10,49,23.40
2021,06,01,10,50,23.40
2021,06,01,10,51,23.40
2021,06,01,10,52,23.40
2021,06,01,10,53,23.50
2021,06,01,10,54,23.50
2021,06,01,10,55,23.60
2021,06,01,10,56,23.60
2021,06,01,10,57,23.70
2021,06,01,10,58,23.80
2021,06,01,10,59,23.80
2021,06,01,11,00,23.90
2021,06,01,11,01,23.90
2021,06,01,11,02,23.90
2021,06,01,11,03,23.90
2021,06,01,11,04,23.80
2021,06,01,11,05,23.60
2021,06,01,11,06,23.60
2021,06,01,11,07,23.60
2021,06,01,11,08,23.50
2021,06,01,11,09,23.50
2021,06,01,11,10,23.40
2021,06,01,11,11,23.40
2021,06,01,11,12,23.40
2021,06,01,11,13,23.40
2021,06,01,11,14,23.40
2021,06,01,11,15,23.40
2021,06,01,11,16,23.30
2021,06,01,11,17,23.30
2021,06,01,11,18,23.30
2021,06,01,11,19,23.30
2021,06,01,11,20,23.40
2021,06,01,11,21,23.50
2021,06,01,11,22,23.60
2021,06,01,11,23,23.80
2021,06,01,11,24,23.90
2021,06,01,11,25,23.90
2021,06,01,11,26,23.90
2021,06,01,11,27,23.90
2021,06,01,11,28,23.90
2021,06,01,11,29,23.90
2021,06,01,11,30,23.90
2021,06,01,11,31,24.00
2021,06,01,11,32,24.00
2021,06,01,11,33,24.10
2021,06,01,11,34,24.20
2021,06,01,11,35,24.30
2021,06,01,11,36,24.40
2021,06,01,11,37,24.40
2021,06,01,11,38,24.50
2021,06,01,11,39,24.50
2021,06,01,11,40,24.40
2021,06,01,11,41,24.40
2021,06,01,11,42,24.40
2021,06,01,11,43,24.40
2021,06,01,11,44,24.40
2021,06,01,11,45,24.40
2021,06,01,11,46,24.40
2021,06,01,11,47,24.30
2021,06,01,11,48,24.30
2021,06,01,11,49,24.30
2021,06,01,11,50,24.30
2021,06,01,11,51,24.30
2021,06,01,11,52,24.20
2021,06,01,11,53,24.20
2021,06,01,11,54,24.30
2021,06,01,11,55,24.30
2021,06,01,11,56,24.30
2021,06,01,11,57,24.30
2021,06,01,11,58,24.40
2021,06,01,11,59,24.40
2021,06,01,12,00,24.50
2021,06,01,12,01,24.50
2021,06,01,12,02,24.40
2021,06,01,12,03,24.40
2021,06,01,12,04,24.30
2021,06,01,12,05,24.30
2021,06,01,12,06,24.20
2021,06,01,12,07,24.20
2021,06,01,12,08,24.20
2021,06,01,12,09,24.30
2021,06,01,12,10,24.30
2021,06,01,12,11,24.30
2021,06,01,12,12,24.40
2021,06,01,12,13,24.50
2021,06,01,12,14,24.50
2021,06,01,12,15,24.60
2021,06,01,12,16,24.60
2021,06,01,12,17,24.60
2021,06,01,12,18,24.60
2021,06,01,12,19,24.60
2021,06,01,12,20,24.60
2021,06,01,12,21,24.60
2021,06,01,12,22,24.60
2021,06,01,12,23,24.50
2021,06,01,12,24,24.50
2021,06,01,12,25,24.50
2021,06,01,12,26,24.60
2021,06,01,12,27,24.70
2021,06,01,12,28,24.70
2021,06,01,12,29,24.70
2021,06,01,12,30,24.80
2021,06,01,12,31,24.80
2021,06,01,12,32,24.80
2021,06,01,12,33,24.70
2021,06,01,12,34,24.70
2021,06,01,12,35,24.80
2021,06,01,12,36,24.80
2021,06,01,12,37,24.80
2021,06,01,12,38,24.80
2021,06,01,12,39,24.90
2021,06,01,12,40,24.90
2021,06,01,12,41,25.00
2021,06,01,12,42,25.10
2021,06,01,12,43,25.10
2021,06,01,12,44,25.10
2021,06,01,12,45,25.10
2021,06,01,12,46,25.10
2021,06,01,12,47,25.20
2021,06,01,12,48,25.30
2021,06,01,12,49,25.30
2021,06,01,12,50,25.40
2021,06,01,12,51,25.50
2021,06,01,12,52,25.60
2021,06,01,12,53,25.80
2021,06,01,12,54,25.80
2021,06,01,12,55,25.80
2021,06,01,12,56,25.80
2021,06,01,12,57,25.80
2021,06,01,12,58,25.70
2021,06,01,12,59,25.70
2021,06,01,13,00,25.70
2021,06,01,13,01,25.70
2021,06,01,13,02,25.70
2021,06,01,13,03,25.70
2021,06,01,13,04,25.70
2021,06,01,13,05,25.70
2021,06,01,13,06,25.70
2021,06,01,13,07,25.70
2021,06,01,13,08,25.60
2021,06,01,13,09,25.50
2021,06,01,13,10,25.40
2021,06,01,13,11,25.30
2021,06,01,13,12,25.30
2021,06,01,13,13,25.30
2021,06,01,13,14,25.30
2021,06,01,13,15,25.30
2021,06,01,13,16,25.40
2021,06,01,13,17,25.40
2021,06,01,13,18,25.50
2021,06,01,13,19,25.50
2021,06,01,13,20,25.70
2021,06,01,13,21,25.80
2021,06,01,13,22,25.80
2021,06,01,13,23,25.80
2021,06,01,13,24,26.00
2021,06,01,13,25,26.10
2021,06,01,13,26,26.20
2021,06,01,13,27,26.20
2021,06,01,13,28,26.20
2021,06,01,13,29,26.30
2021,06,01,13,30,26.30
2021,06,01,13,31,26.30
2021,06,01,13,32,26.30
2021,06,01,13,33,26.30
2021,06,01,13,34,26.30
2021,06,01,13,35,26.30
2021,06,01,13,36,26.40
2021,06,01,13,37,26.50
2021,06,01,13,38,26.50
2021,06,01,13,39,26.50
2021,06,01,13,40,26.50
2021,06,01,13,41,26.50
2021,06,01,13,42,26.60
2021,06,01,13,43,26.60
2021,06,01,13,44,26.60
2021,06,01,13,45,26.50
2021,06,01,13,46,26.50
2021,06,01,13,47,26.50
2021,06,01,13,48,26.50
2021,06,01,13,49,26.50
2021,06,01,13,50,26.60
2021,06,01,13,51,26.60
2021,06,01,13,52,26.60
2021,06,01,13,53,26.70
2021,06,01,13,54,26.80
2021,06,01,13,55,26.80
2021,06,01,13,56,26.90
2021,06,01,13,57,26.90
2021,06,01,13,58,26.90
2021,06,01,13,59,26.80
2021,06,01,14,00,26.70
2021,06,01,14,01,26.60
2021,06,01,14,02,26.50
2021,06,01,14,03,26.40
2021,06,01,14,04,26.30
2021,06,01,14,05,26.20
2021,06,01,14,06,26.10
2021,06,01,14,07,26.00
2021,06,01,14,08,25.90
2021,06,01,14,09,25.80
2021,06,01,14,10,25.70
2021,06,01,14,11,25.70
2021,06,01,14,12,25.70
2021,06,01,14,13,25.70
2021,06,01,14,14,25.70
2021,06,01,14,15,25.70
2021,06,01,14,16,25.80
2021,06,01,14,17,25.70
2021,06,01,14,18,25.70
2021,06,01,14,19,25.70
2021,06,01,14,20,25.70
2021,06,01,14,21,25.70
2021,06,01,14,22,25.70
2021,06,01,14,23,25.70
2021,06,01,14,24,25.70
2021,06,01,14,25,25.70
2021,06,01,14,26,25.70
2021,06,01,14,27,25.70
2021,06,01,14,28,25.70
2021,06,01,14,29,25.70
2021,06,01,14,30,25.80
2021,06,01,14,31,25.80
2021,06,01,14,32,25.90
2021,06,01,14,33,26.00
2021,06,01,14,34,26.10
2021,06,01,14,35,26.20
2021,06,01,14,36,26.20
2021,06,01,14,37,26.20
2021,06,01,14,38,26.20
2021,06,01,14,39,26.20
2021,06,01,14,40,26.20
2021,06,01,14,41,26.20
2021,06,01,14,42,26.20
2021,06,01,14,43,26.30
2021,06,01,14,44,26.40
2021,06,01,14,45,26.60
2021,06,01,14,46,26.70
2021,06,01,14,47,26.80
2021,06,01,14,48,26.90
2021,06,01,14,49,27.00
2021,06,01,14,50,27.10
2021,06,01,14,51,27.10
2021,06,01,14,52,27.10
2021,06,01,14,53,27.10
2021,06,01,14,54,27.10
2021,06,01,14,55,27.10
2021,06,01,14,56,27.20
2021,06,01,14,57,27.30
2021,06,01,14,58,27.40
2021,06,01,14,59,27.50
2021,06,01,15,00,27.50
2021,06,01,15,01,27.60
2021,06,01,15,02,27.70
2021,06,01,15,03,27.70
2021,06,01,15,04,27.70
2021,06,01,15,05,27.60
2021,06,01,15,06,27.60
2021,06,01,15,07,27.60
2021,06,01,15,08,27.60
2021,06,01,15,09,27.50
2021,06,01,15,10,27.50
2021,06,01,15,11,27.40
2021,06,01,15,12,27.40
2021,06,01,15,13,27.40
2021,06,01,15,14,27.40
2021,06,01,15,15,27.40
2021,06,01,15,16,27.40
2021,06,01,15,17,27.40
2021,06,01,15,18,27.40
2021,06,01,15,19,27.40
2021,06,01,15,20,27.50
2021,06,01,15,21,27.60
2021,06,01,15,22,27.60
2021,06,01,15,23,27.60
2021,06,01,15,24,27.60
2021,06,01,15,25,27.60
2021,06,01,15,26,27.60
2021,06,01,15,27,27.60
2021,06,01,15,28,27.60
2021,06,01,15,29,27.60
2021,06,01,15,30,27.70
2021,06,01,15,31,27.80
2021,06,01,15,32,27.90
2021,06,01,15,33,28.00
2021,06,01,15,34,28.00
2021,06,01,15,35,28.00
2021,06,01,15,36,28.10
2021,06,01,15,37,28.10
2021,06,01,15,38,28.10
2021,06,01,15,39,28.10
2021,06,01,15,40,28.00
2021,06,01,15,41,27.90
2021,06,01,15,42,27.80
2021,06,01,15,43,27.70
2021,06,01,15,44,27.60
2021,06,01,15,45,27.60
2021,06,01,15,46,27.50
2021,06,01,15,47,27.50
2021,06,01,15,48,27.50
2021,06,01,15,49,27.40
2021,06,01,15,50,27.50
2021,06,01,15,51,27.40
2021,06,01,15,52,27.40
2021,06,01,15,53,27.40
2021,06,01,15,54,27.40
2021,06,01,15,55,27.40
2021,06,01,15,56,27.30
2021,06,01,15,57,27.20
2021,06,01,15,58,27.10
2021,06,01,15,59,27.10
2021,06,01,16,00,27.00
2021,06,01,16,01,26.90
2021,06,01,16,02,26.90
2021,06,01,16,03,26.80
2021,06,01,16,04,26.80
2021,06,01,16,05,26.90
2021,06,01,16,06,27.00
2021,06,01,16,07,27.10
2021,06,01,16,08,27.10
2021,06,01,16,09,27.20
2021,06,01,16,10,27.20
2021,06,01,16,11,27.20
2021,06,01,16,12,27.20
2021,06,01,16,13,27.20
2021,06,01,16,14,27.20
2021,06,01,16,15,27.30
2021,06,01,16,16,27.30
2021,06,01,16,17,27.30
2021,06,01,16,18,27.30
2021,06,01,16,19,27.30
2021,06,01,16,20,27.40
2021,06,01,16,21,27.40
2021,06,01,16,22,27.50
2021,06,01,16,23,27.60
2021,06,01,16,24,27.70
2021,06,01,16,25,27.70
2021,06,01,16,26,27.70
2021,06,01,16,27,27.80
2021,06,01,16,28,27.80
2021,06,01,16,29,27.80
2021,06,01,16,30,27.80
2021,06,01,16,31,27.70
2021,06,01,16,32,27.70
2021,06,01,16,33,27.70
2021,06,01,16,34,27.60
2021,06,01,16,35,27.50
2021,06,01,16,36,27.30
2021,06,01,16,37,27.20
2021,06,01,16,38,27.10
2021,06,01,16,39,27.00
2021,06,01,16,40,26.90
2021,06,01,16,41,26.90
2021,06,01,16,42,26.90
2021,06,01,16,43,26.90
2021,06,01,16,44,27.00
2021,06,01,16,45,26.90
2021,06,01,16,46,26.90
2021,06,01,16,47,26.90
2021,06,01,16,48,27.00
2021,06,01,16,49,27.00
2021,06,01,16,50,27.10
2021,06,01,16,51,27.20
2021,06,01,16,52,27.20
2021,06,01,16,53,27.30
2021,06,01,16,54,27.30
2021,06,01,16,55,27.40
2021,06,01,16,56,27.40
2021,06,01,16,57,27.50
2021,06,01,16,58,27.50
2021,06,01,16,59,27.50
2021,06,01,17,00,27.50
2021,06,01,17,01,27.50
2021,06,01,17,02,27.50
2021,06,01,17,03,27.50
2021,06,01,17,04,27.50
2021,06,01,17,05,27.50
2021,06,01,17,06,27.60
2021,06,01,17,07,27.60
2021,06,01,17,08,27.60
2021,06,01,17,09,27.70
2021,06,01,17,10,27.80
2021,06,01,17,11,27.90
2021,06,01,17,12,28.00
2021,06,01,17,13,28.10
2021,06,01,17,14,28.10
2021,06,01,17,15,28.10
2021,06,01,17,16,28.20
2021,06,01,17,17,28.20
2021,06,01,17,18,28.30
2021,06,01,17,19,28.30